This is the latest recevied weather packets stored in our database for station/object N0QWM. If no packets are shown the sender has not sent any weather packets the latest 1 day(s).
| Time | Temp. | Humidity | Pressure | Rain* | Wind** | Luminosity | Snow |
|---|---|---|---|---|---|---|---|
| 1778013470 | 26.11° C | 57% | 1017.5 hPa | 0 mm | 1.34 m/s, 71° | 513 W/m² | - |
| 1778013167 | 26.11° C | 57% | 1017.8 hPa | 0 mm | 2.68 m/s, 295° | 410 W/m² | - |
| 1778012862 | 25.56° C | 58% | 1017.8 hPa | 0 mm | 0.45 m/s, 221° | 622 W/m² | - |
| 1778012559 | 25.56° C | 58% | 1017.6 hPa | 0 mm | 0.45 m/s, 33° | 197 W/m² | - |
| 1778012255 | 26.11° C | 57% | 1017.6 hPa | 0 mm | 0.89 m/s, 235° | 531 W/m² | - |
| 1778011953 | 26.11° C | 58% | 1017.8 hPa | 0 mm | 1.34 m/s, 309° | 613 W/m² | - |
| 1778011652 | 25.56° C | 57% | 1017.9 hPa | 0 mm | 0.89 m/s, 272° | 177 W/m² | - |
| 1778011348 | 25.56° C | 57% | 1018.1 hPa | 0 mm | 0.89 m/s, 186° | 163 W/m² | - |
| 1778011043 | 26.11° C | 56% | 1018.2 hPa | 0 mm | 1.34 m/s, 140° | 240 W/m² | - |
| 1778010741 | 25.56° C | 63% | 1018.2 hPa | 0 mm | 0 m/s | 316 W/m² | - |
| 1778010439 | 25.56° C | 60% | 1018.2 hPa | 0 mm | 0.45 m/s, 336° | 165 W/m² | - |
| 1778010135 | 25° C | 58% | 1018.3 hPa | 0 mm | 0.89 m/s, 302° | 256 W/m² | - |
| 1778009831 | 25° C | 59% | 1018.4 hPa | 0 mm | 0.89 m/s, 293° | 168 W/m² | - |
| 1778009528 | 25° C | 59% | 1018.4 hPa | 0 mm | 0.45 m/s, 230° | 172 W/m² | - |
| 1778009227 | 25° C | 59% | 1018.5 hPa | 0 mm | 0.89 m/s, 274° | 225 W/m² | - |
| 1778008924 | 25° C | 60% | 1018.7 hPa | 0 mm | 0.45 m/s, 2° | 256 W/m² | - |
| 1778008622 | 25° C | 61% | 1018.8 hPa | 0 mm | 0.45 m/s, 244° | 400 W/m² | - |
| 1778008320 | 25° C | 60% | 1018.8 hPa | 0 mm | 0 m/s | 196 W/m² | - |
| 1778008016 | 24.44° C | 61% | 1018.5 hPa | 0 mm | 1.34 m/s, 249° | 222 W/m² | - |
| 1778007716 | 24.44° C | 60% | 1019.2 hPa | 0 mm | 0.89 m/s, 325° | 163 W/m² | - |
| 1778007413 | 25° C | 61% | 1018.9 hPa | 0 mm | 1.34 m/s, 212° | 247 W/m² | - |
| 1778007109 | 24.44° C | 59% | 1019.2 hPa | 0 mm | 0.89 m/s, 301° | 636 W/m² | - |
| 1778006805 | 25° C | 59% | 1019.1 hPa | 0 mm | 0.45 m/s, 78° | 177 W/m² | - |
| 1778006503 | 25.56° C | 60% | 1019.1 hPa | 0 mm | 0.45 m/s, 265° | 181 W/m² | - |
| 1778006199 | 25° C | 57% | 1019.1 hPa | 0 mm | 0.45 m/s, 301° | 814 W/m² | - |
* Rain latest hour (hover to see other rain measurements)
** Current wind speed in m/s (hover to see current wind gust speed)